EA5SW-13 Weather Reports


Display with metric or nautical units.
time (UTC)temp
F
wind
direction
speed
MPH
gust
MPH
rain 1hr
in
rain 24hr
in
rain mn
in
humidity
%
barometer
mb
20260504035302 64 0.0 0.0 0.00 0.00 0.00 78
20260504034258 64 0.0 0.0 0.00 0.00 0.00 78
20260504033301 64 0.0 0.0 0.00 0.00 0.00 77
20260504032238 65 0.0 0.0 0.00 0.00 0.00 77
20260504031302 65 0.0 0.0 0.00 0.00 0.00 77
20260504030238 65 0.0 0.0 0.00 0.00 0.00 77
20260504025702 65 0.0 0.0 0.00 0.00 0.00 77
20260504024638 65 0.0 0.0 0.00 0.00 0.00 77
20260504023702 65 0.0 0.0 0.00 0.00 0.00 77
20260504022638 65 0.0 0.0 0.00 0.00 0.00 77
20260504021701 65 0.0 0.0 0.00 0.00 0.00 77
20260504020638 0 0.0 0.0 0.00 0.00 0.00
20260504015701 65 0.0 0.0 0.00 0.00 0.00 77
20260504014638 65 0.0 0.0 0.00 0.00 0.00 77
20260504013703 65 0.0 1.0 0.00 0.00 0.00 77
20260504012657 65 0.0 1.0 0.00 0.00 0.00 78
20260504011702 65 0.0 0.0 0.00 0.00 0.00 79
20260504010638 65 0.0 0.0 0.00 0.00 0.00 78
20260504005702 65 0.0 0.0 0.00 0.00 0.00 78
20260504004638 64 0.0 0.0 0.00 0.00 0.00 78
20260504003702 64 0.0 0.0 0.00 0.00 0.00 77
20260504002638 64 0.0 0.0 0.00 0.00 0.00 77
20260504001823 65 0.0 0.0 0.00 0.00 0.00 77
20260504000637 0 0.0 0.0 0.00 0.00 0.00
20260503235703 65 0.0 0.0 0.00 0.00 0.00 77
20260503234638 65 0.0 0.0 0.00 0.00 0.00 77
20260503233722 65 0.0 0.0 0.00 0.00 0.00 77
20260503232638 65 0.0 0.0 0.00 0.00 0.00 77
20260503231722 65 0.0 0.0 0.00 0.00 0.00 77
20260503230638 65 0.0 0.0 0.00 0.00 0.00 77
20260503225702 65 0.0 0.0 0.00 0.00 0.00 77
20260503224638 65 0.0 0.0 0.00 0.00 0.00 78
20260503223702 65 0.0 0.0 0.00 0.00 0.00 78
20260503222638 65 0.0 0.0 0.00 0.00 0.00 78
20260503221722 65 0.0 0.0 0.00 0.00 0.00 79
20260503220638 0 0.0 0.0 0.00 0.00 0.00
20260503215742 65 0.0 0.0 0.00 0.00 0.00 78
20260503214639 65 0.0 0.0 0.00 0.00 0.00 78
20260503213705 65 0.0 0.0 0.00 0.00 0.00 78
20260503212638 65 0.0 0.0 0.00 0.00 0.00 78
20260503211703 65 0.0 0.0 0.00 0.00 0.00 78
20260503210638 65 0.0 0.0 0.00 0.00 0.00 79
20260503205703 65 0.0 0.0 0.00 0.00 0.00 79
20260503204726 65 0.0 0.0 0.00 0.00 0.00 78
20260503203753 65 0.0 0.0 0.00 0.00 0.00 78
20260503202639 65 0.0 0.0 0.00 0.00 0.00 78
20260503201703 65 0.0 0.0 0.00 0.00 0.00 78
20260503200638 0 0.0 0.0 0.00 0.00 0.00
20260503195702 66 0.0 0.0 0.00 0.00 0.00 77
20260503194638 66 0.0 0.0 0.00 0.00 0.00 77
20260503193702 66 0.0 0.0 0.00 0.00 0.00 76
20260503192638 66 0.0 0.0 0.00 0.00 0.00 76
20260503191723 66 0.0 0.0 0.00 0.00 0.00 75
20260503190638 66 0.0 0.0 0.00 0.00 0.00 75
20260503185703 66 0.0 0.0 0.00 0.00 0.00 74
20260503184638 67 0.0 1.0 0.00 0.00 0.00 74
20260503183723 67 0.0 1.0 0.00 0.00 0.00 73
20260503182639 67 0.0 0.0 0.00 0.00 0.00 73
20260503181703 67 0.0 1.0 0.00 0.00 0.00 73
20260503180638 67 0.0 0.0 0.00 0.00 0.00 71
20260503175703 67 0.0 0.0 0.00 0.00 0.00 71
20260503174639 68 0.0 1.0 0.00 0.00 0.00 70
20260503173703 68 0.0 1.0 0.00 0.00 0.00 70
20260503172639 68 0.0 0.0 0.00 0.00 0.00 70
20260503171702 68 0.0 0.0 0.00 0.00 0.00 70
20260503170639 68 0.0 0.0 0.00 0.00 0.00 70
20260503150700 0 0.0 0.0 0.00 0.00 0.00
20260503130639 74 0.0 1.0 0.00 0.00 0.00 54
20260503110239 70 0.0 1.0 0.00 0.00 0.00 66
20260503080639 65 0.0 1.0 0.00 0.00 0.00 81
20260503072639 65 0.0 0.0 0.00 0.00 0.00 80
20260503071704 65 0.0 0.0 0.00 0.00 0.00 81
20260503070640 65 0.0 0.0 0.00 0.00 0.00 81
20260503054504 64 0.0 0.0 0.00 0.00 0.00 80
20260503053439 65 0.0 0.0 0.00 0.00 0.00 80
20260503052503 65 0.0 0.0 0.00 0.00 0.00 80
20260503051440 65 0.0 0.0 0.00 0.00 0.00 80
20260503050504 65 0.0 1.0 0.00 0.00 0.00 80
20260503045500 65 0.0 0.0 0.00 0.00 0.00 80
20260503044504 65 0.0 0.0 0.00 0.00 0.00 80
20260503043459 65 0.0 1.0 0.00 0.00 0.00 80
20260503042504 65 0.0 0.0 0.00 0.00 0.00 80
20260503041500 65 0.0 1.0 0.00 0.00 0.00 80
20260503040524 65 0.0 1.0 0.00 0.00 0.00 80